Location: Melbourne
(37.8120°S, 144.9677°E)
Time: 08:15:39
(UTC+10:00)

ISS - Visible Passes

Search period start: 28 April 2015 00:00
Search period end: 08 May 2015 00:00
Orbit: 395 x 402 km, 51.6° (Epoch: 27 April)

Date Brightness Start Highest point End Pass type
(mag) Time Alt. Az. Time Alt. Az. Time Alt. Az.
28 Apr -3.4 05:48:32 25° SW 05:50:21 89° N 05:53:36 10° NE visible
29 Apr -1.7 04:57:00 34° ESE 04:57:00 34° ESE 04:59:16 10° ENE visible
29 Apr -1.4 06:30:02 10° W 06:32:16 17° NW 06:34:24 10° N visible
30 Apr -2.6 05:38:06 35° NW 05:38:12 35° NW 05:41:12 10° NNE visible
01 May -0.5 04:46:40 15° NE 04:46:40 15° NE 04:47:16 10° NE visible
05 May -1.5 19:16:36 10° NNW 19:18:07 23° N 19:18:07 23° N visible
06 May -1.6 18:22:58 10° N 18:25:20 19° NE 18:26:21 17° ENE visible
06 May 0.0 19:58:23 10° WNW 19:58:54 13° WNW 19:58:54 13° WNW visible
07 May -3.4 19:03:38 10° NW 19:06:54 81° SW 19:06:58 80° SSW visible
